Flag for Norway Weather past 2 weeks in Egersund, Norway

Now
47 °F

Cool.


Feels Like: 45 °F
Forecast: 38 / 55 °F
Wind: 5 mph from North

Location: Ualand-Bjuland

Current Time: Apr 18, 2015 at 11:12:06 PM

Latest Report: Apr 18, 2015 at 10:00 PM


Visibility: N/A

Pressure: 30.19 "Hg

Humidity: 51%

Dew point: 29 °F

Location of EgersundLocation

Historic Weather in Egersund — Graph

°F

Egersund temperature yesterday

Maximum temperature yesterday: 56 °F (at 3:00 PM)
Minimum temperature yesterday: 27 °F (at 6:00 AM)
Average temperature yesterday: 43 °F

Past Weeks' High & Low Weather Summary

 TemperatureHumidityPressure
High56 °F (Apr 17, 3:00 PM)99% (Apr 6, 3:00 AM)30.48 "Hg (Apr 6, 3:00 AM)
Low24 °F (Apr 4, 6:00 AM)24% (Apr 17, 4:00 PM)29.62 "Hg (Apr 15, 1:00 PM)
Average41 °F76%30.11 "Hg
* Reported Apr 3 9:00 PM — Apr 18 9:00 PM, Egersund, Weather by CustomWeather, © 2015

Note: Actual official high and low records may vary slightly from our data, if they occured in-between our weather recording intervals... More about our weather records

Advertising

Egersund weather history for previous 24 hours

 ConditionsComfort  
Time TempWeatherWind HumidityBarometerVisibility
9:00 PM
Sat, Apr 18
49 °FCool.6 mph50%30.19 "HgN/A
8:00 PM50 °FOvercast.7 mph53%30.18 "Hg47 mi
7:00 PM51 °FCool.7 mph53%30.17 "HgN/A
6:00 PM52 °FCool.7 mph55%30.18 "HgN/A
5:00 PM54 °FCool.6 mph49%30.20 "HgN/A
4:00 PM54 °FCool.8 mph46%30.22 "HgN/A
3:00 PM55 °FRefreshingly cool.9 mph36%30.24 "HgN/A
2:00 PM56 °FScattered clouds.7 mph28%30.25 "Hg47 mi
1:00 PM56 °FRefreshingly cool.7 mph26%30.26 "HgN/A
11:00 AM45 °FQuite cool.1 mph56%30.32 "HgN/A
10:00 AM41 °FQuite cool.1 mph60%30.33 "HgN/A
9:00 AM37 °FChilly.1 mph76%30.34 "HgN/A
8:00 AM31 °FPartly sunny.1 mph87%30.36 "Hg47 mi
7:00 AM27 °FChilly.1 mph93%30.38 "HgN/A
6:00 AM27 °FChilly.1 mph90%30.37 "HgN/A
4:00 AM30 °FChilly.1 mph82%30.37 "HgN/A
3:00 AM28 °FChilly.1 mph90%30.37 "HgN/A
2:00 AM32 °FChilly.1 mph88%30.35 "HgN/A
1:00 AM34 °FChilly.1 mph82%30.33 "HgN/A
12:00 AM39 °FChilly.2 mph63%30.30 "HgN/A
Weather by CustomWeather, © 2015

See weather overviewHow to use our weather pages